TimeEST,TemperatureF,Dew PointF,Humidity,Sea Level PressureIn,VisibilityMPH,Wind Direction,Wind SpeedMPH,Gust SpeedMPH,PrecipitationIn,Events,Conditions,WindDirDegrees,DateUTC
12:15 AM,44.6,35.6,71,30.15,7.0,West,4.6,-,N/A,,Clear,280,2012-11-09 05:15:00
12:35 AM,44.6,35.6,71,30.16,7.0,West,5.8,-,N/A,,Clear,260,2012-11-09 05:35:00
12:55 AM,44.6,35.6,71,30.16,7.0,West,5.8,-,N/A,,Clear,260,2012-11-09 05:55:00
1:15 AM,44.6,35.6,71,30.16,7.0,West,6.9,-,N/A,,Clear,270,2012-11-09 06:15:00
1:35 AM,46.4,35.6,66,30.16,10.0,West,8.1,-,N/A,,Clear,280,2012-11-09 06:35:00
1:55 AM,46.4,35.6,66,30.16,7.0,West,8.1,-,N/A,,Clear,280,2012-11-09 06:55:00
2:15 AM,46.4,35.6,66,30.16,10.0,WNW,6.9,-,N/A,,Clear,290,2012-11-09 07:15:00
2:35 AM,46.4,35.6,66,30.17,10.0,West,5.8,-,N/A,,Clear,280,2012-11-09 07:35:00
2:55 AM,46.4,35.6,66,30.17,7.0,WNW,8.1,-,N/A,,Clear,300,2012-11-09 07:55:00
3:15 AM,50.0,37.4,62,30.17,10.0,WNW,9.2,-,N/A,,Clear,300,2012-11-09 08:15:00
3:35 AM,48.2,37.4,66,30.17,10.0,NW,6.9,-,N/A,,Clear,310,2012-11-09 08:35:00
3:55 AM,48.2,37.4,66,30.18,10.0,WNW,8.1,-,N/A,,Clear,290,2012-11-09 08:55:00
4:15 AM,46.4,37.4,71,30.19,7.0,NW,4.6,-,N/A,,Clear,310,2012-11-09 09:15:00
4:35 AM,46.4,37.4,71,30.20,10.0,NW,4.6,-,N/A,,Clear,320,2012-11-09 09:35:00
4:55 AM,46.4,35.6,66,30.20,7.0,Calm,Calm,-,N/A,,Clear,0,2012-11-09 09:55:00
5:15 AM,46.4,35.6,66,30.21,10.0,NW,4.6,-,N/A,,Clear,320,2012-11-09 10:15:00
5:35 AM,46.4,35.6,66,30.21,10.0,North,3.5,-,N/A,,Clear,350,2012-11-09 10:35:00
5:55 AM,44.6,35.6,71,30.22,7.0,NNW,4.6,-,N/A,,Clear,330,2012-11-09 10:55:00
6:15 AM,44.6,35.6,71,30.22,7.0,NW,3.5,-,N/A,,Clear,320,2012-11-09 11:15:00
6:35 AM,44.6,35.6,71,30.24,7.0,NW,3.5,-,N/A,,Clear,320,2012-11-09 11:35:00
6:55 AM,42.8,35.6,76,30.24,7.0,Calm,Calm,-,N/A,,Clear,0,2012-11-09 11:55:00
7:15 AM,42.8,35.6,76,30.25,7.0,North,3.5,-,N/A,,Clear,350,2012-11-09 12:15:00
7:35 AM,44.6,35.6,71,30.26,7.0,Calm,Calm,-,N/A,,Clear,0,2012-11-09 12:35:00
7:55 AM,46.4,37.4,71,30.26,7.0,Calm,Calm,-,N/A,,Clear,0,2012-11-09 12:55:00
8:15 AM,50.0,35.6,58,30.27,5.0,Calm,Calm,-,N/A,,Haze,0,2012-11-09 13:15:00
8:35 AM,51.8,37.4,58,30.27,7.0,NNE,4.6,-,N/A,,Clear,30,2012-11-09 13:35:00
8:55 AM,53.6,37.4,54,30.27,5.0,NE,5.8,-,N/A,,Haze,40,2012-11-09 13:55:00
9:15 AM,55.4,33.8,44,30.28,7.0,NE,10.4,-,N/A,,Clear,40,2012-11-09 14:15:00
9:35 AM,55.4,32.0,41,30.29,7.0,NE,9.2,-,N/A,,Clear,40,2012-11-09 14:35:00
9:55 AM,57.2,32.0,38,30.30,5.0,NE,9.2,-,N/A,,Haze,40,2012-11-09 14:55:00
10:15 AM,59.0,32.0,36,30.30,7.0,NNE,6.9,-,N/A,,Clear,30,2012-11-09 15:15:00
10:35 AM,59.0,32.0,36,30.30,7.0,NNE,4.6,-,N/A,,Clear,30,2012-11-09 15:35:00
10:55 AM,59.0,32.0,36,30.30,7.0,NNE,3.5,-,N/A,,Clear,30,2012-11-09 15:55:00
11:15 AM,60.8,32.0,34,30.29,7.0,Calm,Calm,-,N/A,,Clear,0,2012-11-09 16:15:00
11:35 AM,60.8,32.0,34,30.29,7.0,Calm,Calm,-,N/A,,Clear,0,2012-11-09 16:35:00
11:55 AM,62.6,28.4,27,30.27,5.0,Calm,Calm,-,N/A,,Haze,0,2012-11-09 16:55:00
12:15 PM,64.4,30.2,28,30.27,7.0,Calm,Calm,-,N/A,,Clear,0,2012-11-09 17:15:00
12:35 PM,64.4,30.2,28,30.26,7.0,Calm,Calm,-,N/A,,Clear,0,2012-11-09 17:35:00
12:55 PM,64.4,32.0,30,30.25,7.0,SW,4.6,-,N/A,,Clear,230,2012-11-09 17:55:00
1:15 PM,66.2,30.2,26,30.25,5.0,SSW,4.6,-,N/A,,Haze,200,2012-11-09 18:15:00
1:35 PM,68.0,32.0,26,30.24,7.0,West,4.6,-,N/A,,Clear,260,2012-11-09 18:35:00
1:55 PM,66.2,33.8,30,30.23,7.0,SSW,5.8,-,N/A,,Clear,200,2012-11-09 18:55:00
2:15 PM,66.2,35.6,32,30.23,5.0,SW,5.8,-,N/A,,Haze,230,2012-11-09 19:15:00
2:35 PM,64.4,33.8,32,30.23,7.0,South,3.5,-,N/A,,Clear,190,2012-11-09 19:35:00
2:55 PM,64.4,33.8,32,30.22,7.0,South,4.6,-,N/A,,Clear,170,2012-11-09 19:55:00
3:15 PM,66.2,33.8,30,30.22,7.0,SSW,3.5,-,N/A,,Clear,200,2012-11-09 20:15:00
3:35 PM,64.4,33.8,32,30.22,7.0,South,4.6,-,N/A,,Clear,170,2012-11-09 20:35:00
3:55 PM,64.4,32.0,30,30.22,7.0,Calm,Calm,-,N/A,,Clear,0,2012-11-09 20:55:00
4:15 PM,62.6,39.2,42,30.22,7.0,SSE,4.6,-,N/A,,Clear,150,2012-11-09 21:15:00
4:35 PM,62.6,39.2,42,30.22,7.0,Calm,Calm,-,N/A,,Clear,0,2012-11-09 21:35:00
4:55 PM,60.8,41.0,48,30.22,7.0,SSE,3.5,-,N/A,,Clear,160,2012-11-09 21:55:00
5:15 PM,59.0,37.4,45,30.22,7.0,SSE,3.5,-,N/A,,Clear,160,2012-11-09 22:15:00
5:35 PM,55.4,39.2,54,30.22,7.0,SSE,3.5,-,N/A,,Clear,160,2012-11-09 22:35:00
5:55 PM,55.4,39.2,54,30.23,7.0,South,4.6,-,N/A,,Clear,170,2012-11-09 22:55:00
6:15 PM,51.8,41.0,67,30.24,7.0,South,3.5,-,N/A,,Clear,170,2012-11-09 23:15:00
6:35 PM,51.8,41.0,67,30.24,7.0,Calm,Calm,-,N/A,,Clear,0,2012-11-09 23:35:00
6:55 PM,51.8,42.8,71,30.24,7.0,Calm,Calm,-,N/A,,Clear,0,2012-11-09 23:55:00
7:15 PM,50.0,42.8,76,30.25,10.0,Calm,Calm,-,N/A,,Clear,0,2012-11-10 00:15:00
7:35 PM,50.0,42.8,76,30.25,7.0,Calm,Calm,-,N/A,,Clear,0,2012-11-10 00:35:00
7:55 PM,50.0,42.8,76,30.25,7.0,Calm,Calm,-,N/A,,Clear,0,2012-11-10 00:55:00
8:15 PM,50.0,42.8,76,30.25,7.0,Calm,Calm,-,N/A,,Clear,0,2012-11-10 01:15:00
8:35 PM,50.0,42.8,76,30.26,7.0,Calm,Calm,-,N/A,,Clear,0,2012-11-10 01:35:00
8:55 PM,48.2,42.8,82,30.26,10.0,South,3.5,-,N/A,,Clear,180,2012-11-10 01:55:00
9:15 PM,48.2,44.6,87,30.26,7.0,South,3.5,-,N/A,,Clear,190,2012-11-10 02:15:00
9:35 PM,48.2,44.6,87,30.27,10.0,Calm,Calm,-,N/A,,Clear,0,2012-11-10 02:35:00
9:55 PM,48.2,44.6,87,30.27,7.0,Calm,Calm,-,N/A,,Clear,0,2012-11-10 02:55:00
10:15 PM,48.2,44.6,87,30.27,7.0,Calm,Calm,-,N/A,,Clear,0,2012-11-10 03:15:00
10:35 PM,46.4,44.6,93,30.27,7.0,Calm,Calm,-,N/A,,Clear,0,2012-11-10 03:35:00
10:55 PM,46.4,44.6,93,30.27,7.0,Calm,Calm,-,N/A,,Clear,0,2012-11-10 03:55:00
11:15 PM,46.4,44.6,93,30.27,7.0,Calm,Calm,-,N/A,,Clear,0,2012-11-10 04:15:00
11:35 PM,46.4,44.6,93,30.27,7.0,Calm,Calm,-,N/A,,Clear,0,2012-11-10 04:35:00
11:55 PM,46.4,44.6,93,30.27,7.0,Calm,Calm,-,N/A,,Clear,0,2012-11-10 04:55:00